[[{"header":{"parameterUnit":"m.s-1","parameterCategory":1,"la1":30.2991,"la2":30.254,"lo1":-89.0895,"lo2":-89.0444,"dy":0.0017,"dx":0.0017,"nx":28,"ny":28,"refTime":"2023-11-11T03:00:00:Z","depth":0,"parameterNumber":2,"parameterNumberName":"U-component_of_WINDS"},"data":[0,0,0,0,0,0,0,0,0,0,0,0,0,0,0,0,0,0,0,0,0,0,0,0,0,0,0,0,0,0,0,0,0,0,0,0,0,0,0,0,0,0,0,0,0,0,0,0,0,0,0,0,0,0,0,0,0,0,-2.1889,-2.1889,0,-2.1876,-2.1876,-2.1875,-2.1814,-2.1812,-2.1811,-2.181,-2.1797,-2.1798,-2.1799,0,0,0,0,0,0,0,0,0,0,0,0,0,-2.1861,-2.1862,-2.1889,-2.1889,-2.1888,-2.1876,-2.1876,-2.1875,-2.1814,-2.1812,-2.1811,-2.1809,-2.1797,-2.1798,-2.1799,0,0,0,0,0,0,0,0,0,0,0,0,0,-2.1863,-2.1862,-2.1889,-2.1856,-2.1853,-2.1876,-2.1876,-2.1875,-2.1815,-2.1812,-2.181,-2.1808,-2.1796,-2.1798,-2.1799,-2.1853,0,0,-2.1804,-2.1805,0,0,0,0,0,0,0,0,-2.1863,-2.1864,-2.1861,-2.1859,-2.1855,-2.1844,-2.1861,-2.1868,-2.1815,-2.1829,-2.181,-2.1807,-2.1815,-2.1815,-2.1817,-2.1852,-2.1851,-2.1804,-2.1805,-2.1806,-2.1806,0,0,0,0,0,0,0,-2.1863,-2.1865,-2.1884,-2.1861,-2.1858,-2.1843,-2.1841,-2.1862,-2.1834,-2.1828,-2.1823,-2.1823,-2.1813,-2.1816,-2.1816,-2.1851,-2.1804,-2.1806,-2.1807,-2.1807,-2.193,-2.1932,0,0,0,0,0,0,-2.1868,-2.1865,-2.1884,-2.1883,-2.1854,-2.1845,-2.1843,-2.185,-2.1834,-2.1829,-2.1824,-2.182,-2.1814,-2.1814,-2.1816,-2.1877,-2.1806,-2.1807,-2.1808,-2.1928,-2.1931,-2.1933,0,0,0,0,0,0,-2.1867,-2.187,-2.1885,-2.1873,-2.1874,-2.1848,-2.1857,-2.1851,-2.1854,-2.1831,-2.1826,-2.1833,-2.1812,-2.1813,-2.1844,-2.1876,-2.1808,-2.1809,-2.1925,-2.1929,-2.1932,-2.2002,0,0,0,0,0,0,-2.1867,-2.187,-2.189,-2.1874,-2.1874,-2.1913,-2.1858,-2.1852,-2.1857,-2.185,-2.1838,-2.1834,-2.1811,-2.1842,-2.1845,-2.1877,-2.1811,-2.1922,-2.1927,-2.1931,-2.1996,-2.2007,-2.2016,0,0,0,0,0,-2.1866,-2.191,-2.1891,-2.1894,-2.1899,-2.1915,-2.1916,-2.1888,-2.1859,-2.1879,-2.1865,-2.1834,-2.1872,-2.1846,-2.1849,-2.1882,-2.192,-2.1925,-2.193,-2.1992,-2.2005,-2.2016,0,0,0,0,0,0,-2.1931,-2.1907,-2.1886,-2.1926,-2.1923,-2.1905,-2.1929,-2.1903,-2.1908,-2.1902,-2.1868,-2.1866,-2.1902,-2.1894,-2.1866,-2.1932,-2.1891,-2.1897,-2.1936,-2.1948,-2.1958,-2.196,-2.1812,0,0,0,0,0,-2.195,-2.1965,-2.1944,-2.1981,-2.1981,-2.1955,-2.1961,-2.1941,-2.1936,-2.1935,-2.1922,-2.1919,-2.1931,-2.1939,-2.1948,-2.1994,-2.1991,-2.2018,-2.2028,-2.2037,-2.2043,-2.2068,-2.208,-2.195,-2.195,-2.195,0,0,-2.1989,-2.1978,-2.199,-2.1994,-2.1989,-2.2006,-2.1955,-2.1974,-2.1987,-2.1938,-2.1966,-2.1957,-2.1951,-2.1991,-2.2007,-2.1986,-2.2078,-2.2043,-2.205,-2.2052,-2.2075,-2.2087,-2.2098,-2.1954,-2.1953,-2.1953,0,0,-2.207,-2.2063,-2.2094,-2.209,-2.2083,-2.2066,-2.2073,-2.2059,-2.2051,-2.2079,-2.2042,-2.2057,-2.2076,-2.2074,-2.2076,-2.2156,-2.2128,-2.216,-2.2212,-2.2237,-2.2247,-2.2256,-2.2286,-2.2297,-2.2166,-2.2166,-2.2166,0,-2.212,-2.2144,-2.2113,-2.2136,-2.2139,-2.2094,-2.2126,-2.2123,-2.212,-2.2124,-2.2099,-2.2124,-2.2117,-2.2155,-2.2175,-2.2177,-2.2185,-2.2162,-2.2248,-2.2257,-2.2265,-2.2293,-2.2304,-2.217,-2.2169,-2.2169,-2.2169,0,-2.2207,-2.2224,-2.2249,-2.2248,-2.2253,-2.228,-2.2254,-2.2263,-2.2242,-2.2227,-2.2257,-2.2247,-2.2253,-2.2261,-2.224,-2.2296,-2.2283,-2.2254,-2.2212,-2.2282,-2.2308,-2.2318,-2.2176,-2.2174,-2.2173,-2.2172,0,0,-2.2329,-2.2309,-2.2319,-2.2318,-2.2307,-2.232,-2.2345,-2.2351,-2.2361,-2.236,-2.2381,-2.2398,-2.2372,-2.2373,-2.2352,-2.2373,-2.2439,-2.2342,-2.2341,-2.2361,-2.2502,-2.2525,-2.2538,-2.242,-2.2422,-2.2423,-2.2503,0,-2.2407,-2.2449,-2.2422,-2.2468,-2.2484,-2.2442,-2.2464,-2.246,-2.2447,-2.2459,-2.2444,-2.2458,-2.2421,-2.2422,-2.2441,-2.2427,-2.2467,-2.2421,-2.244,-2.2441,-2.2444,-2.2552,-2.2576,-2.2652,-2.2513,-2.2515,-2.2516,0,-2.2505,-2.2508,-2.2556,-2.2542,-2.2548,-2.2568,-2.2572,-2.2584,-2.2578,-2.2567,-2.257,-2.2543,-2.2567,-2.2524,-2.2557,-2.2526,-2.2532,-2.2527,-2.2529,-2.2531,-2.2484,-2.2558,-2.2675,-2.2687,-2.2531,-2.253,-2.2529,0,-2.2591,-2.2607,-2.2638,-2.2638,-2.2623,-2.2638,-2.2633,-2.2625,-2.2631,-2.2634,-2.2637,-2.2644,-2.2647,-2.2653,-2.2629,-2.2599,-2.2666,-2.262,-2.2658,-2.2659,-2.2675,-2.2675,-2.2797,-2.2677,-2.2677,-2.2676,-2.2676,0,-2.2682,-2.2714,-2.2677,-2.2696,-2.273,-2.2698,-2.2733,-2.2723,-2.2717,-2.2733,-2.2697,-2.2714,-2.268,-2.2693,-2.2674,-2.2705,-2.2707,-2.2699,-2.2694,-2.2703,-2.2705,-2.2708,-2.2703,-2.2679,-2.2679,-2.2678,-2.2678,0,-2.2785,-2.2762,-2.2793,-2.2776,-2.2772,-2.2798,-2.2783,-2.2801,-2.2785,-2.2807,-2.281,-2.2786,-2.28,-2.2775,-2.2786,-2.2773,-2.2817,-2.2803,-2.282,-2.2816,-2.2856,-2.2853,-2.2985,-2.3002,-2.287,-2.2871,-2.2872,0,-2.2846,-2.2869,-2.2854,-2.2863,-2.2859,-2.2873,-2.2879,-2.2848,-2.2856,-2.2851,-2.287,-2.288,-2.2887,-2.2912,-2.2895,-2.2904,-2.289,-2.2936,-2.2892,-2.29,-2.2893,-2.2893,-2.2895,-2.2946,-2.2948,-2.2949,-2.295,0,-2.2956,-2.2944,-2.2953,-2.2959,-2.2966,-2.2969,-2.2969,-2.2978,-2.2946,-2.2956,-2.297,-2.2976,-2.2987,-2.2998,-2.3002,-2.2997,-2.2969,-2.2964,-2.2973,-2.2984,-2.2993,-2.299,-2.2846,-2.2961,-2.296,-2.2959,-2.2959,-2.2958,-2.3041,-2.306,-2.3052,-2.3064,-2.3061,-2.3062,-2.3078,-2.3064,-2.3075,-2.3081,-2.3062,-2.3081,-2.3075,-2.3078,-2.3075,-2.309,-2.307,-2.3083,-2.3087,-2.3091,-2.3098,-2.2989,-2.309,-2.309,-2.3089,-2.3089,-2.3089,0,-2.3151,-2.3144,-2.3155,-2.3157,-2.3166,-2.3137,-2.3136,-2.3146,-2.3163,-2.316,-2.3167,-2.3184,-2.3194,-2.3179,-2.3187,-2.3202,-2.3189,-2.3205,-2.3205,-2.3204,-2.3115,-2.3106,-2.3215,-2.3215,-2.3215,-2.3215,-2.3215,-2.3215,-2.3209,-2.324,-2.3227,-2.3256,-2.3248,-2.3266,-2.3268,-2.3269,-2.3266,-2.3286,-2.3295,-2.3284,-2.3276,-2.3284,-2.3293,-2.3288,-2.3294,-2.3315,-2.3306,-2.3223,-2.321,-2.3199,-2.3191,-2.3316,-2.3316,-2.3394,-2.3395,-2.3395]},{"header":{"parameterUnit":"m.s-1","parameterCategory":1,"la1":30.2991,"la2":30.254,"lo1":-89.0895,"lo2":-89.0444,"dy":0.0017,"dx":0.0017,"nx":28,"ny":28,"refTime":"2023-11-11T03:00:00:Z","depth":0,"parameterNumber":3,"parameterNumberName":"V-component_of_WINDS"},"data":[0,0,0,0,0,0,0,0,0,0,0,0,0,0,0,0,0,0,0,0,0,0,0,0,0,0,0,0,0,0,0,0,0,0,0,0,0,0,0,0,0,0,0,0,0,0,0,0,0,0,0,0,0,0,0,0,0,0,-3.7367,-3.7368,0,-3.7422,-3.7422,-3.7423,-3.7407,-3.7406,-3.7404,-3.7403,-3.7456,-3.7458,-3.746,0,0,0,0,0,0,0,0,0,0,0,0,0,-3.7246,-3.7248,-3.7367,-3.7368,-3.7369,-3.7421,-3.7422,-3.7423,-3.7407,-3.7405,-3.7404,-3.7403,-3.7455,-3.7458,-3.7461,0,0,0,0,0,0,0,0,0,0,0,0,0,-3.7299,-3.7249,-3.7367,-3.7367,-3.7367,-3.7421,-3.7422,-3.7423,-3.7407,-3.7405,-3.7404,-3.7402,-3.7454,-3.7457,-3.7461,-3.7517,0,0,-3.7472,-3.7474,0,0,0,0,0,0,0,0,-3.7296,-3.7304,-3.7366,-3.7367,-3.7368,-3.7406,-3.7399,-3.7455,-3.7408,-3.7392,-3.7403,-3.7401,-3.744,-3.7445,-3.7459,-3.752,-3.7522,-3.7473,-3.7475,-3.7476,-3.7477,0,0,0,0,0,0,0,-3.7293,-3.7301,-3.7389,-3.7367,-3.7368,-3.7363,-3.7369,-3.7409,-3.7425,-3.7393,-3.7392,-3.7399,-3.744,-3.7455,-3.746,-3.7523,-3.7472,-3.7476,-3.7478,-3.7479,-3.7633,-3.7635,0,0,0,0,0,0,-3.7289,-3.7298,-3.7387,-3.739,-3.7327,-3.7367,-3.7373,-3.7395,-3.7424,-3.7427,-3.74,-3.7398,-3.745,-3.7455,-3.7462,-3.753,-3.7476,-3.748,-3.7482,-3.7631,-3.7634,-3.7636,0,0,0,0,0,0,-3.7286,-3.7297,-3.7385,-3.7344,-3.7355,-3.7371,-3.7395,-3.7397,-3.7412,-3.743,-3.7432,-3.7413,-3.7449,-3.7456,-3.7504,-3.7532,-3.7481,-3.7485,-3.7629,-3.7632,-3.7635,-3.7667,0,0,0,0,0,0,-3.7283,-3.7296,-3.7318,-3.7345,-3.7357,-3.7427,-3.7397,-3.7399,-3.7419,-3.7416,-3.7442,-3.7445,-3.7448,-3.7499,-3.7508,-3.7536,-3.7488,-3.7627,-3.763,-3.7634,-3.7664,-3.7671,-3.7677,0,0,0,0,0,-3.7279,-3.7324,-3.732,-3.733,-3.7385,-3.7429,-3.7436,-3.7439,-3.7421,-3.7443,-3.7455,-3.7444,-3.7527,-3.7504,-3.7514,-3.7543,-3.7625,-3.7629,-3.7633,-3.7661,-3.7669,-3.7677,0,0,0,0,0,0,-3.73,-3.7328,-3.7323,-3.7379,-3.7402,-3.7426,-3.7454,-3.7448,-3.7476,-3.7472,-3.7474,-3.748,-3.7529,-3.7541,-3.7514,-3.7599,-3.7573,-3.758,-3.7591,-3.7599,-3.7605,-3.7602,-3.7491,0,0,0,0,0,-3.7311,-3.7345,-3.7367,-3.7414,-3.7426,-3.7438,-3.7457,-3.7458,-3.7482,-3.7491,-3.7506,-3.7528,-3.7559,-3.7579,-3.7609,-3.7665,-3.767,-3.769,-3.7697,-3.7702,-3.7708,-3.7739,-3.7748,-3.765,-3.765,-3.7649,0,0,-3.7334,-3.7354,-3.7375,-3.7419,-3.7437,-3.7472,-3.7447,-3.7484,-3.7509,-3.7496,-3.7543,-3.7554,-3.7579,-3.7631,-3.7655,-3.7642,-3.7736,-3.7707,-3.7712,-3.7715,-3.7744,-3.7754,-3.7762,-3.7652,-3.7652,-3.7651,0,0,-3.7395,-3.7413,-3.7455,-3.7474,-3.7502,-3.7509,-3.7519,-3.7545,-3.7553,-3.76,-3.7591,-3.762,-3.7673,-3.7692,-3.7708,-3.7776,-3.7767,-3.7785,-3.782,-3.785,-3.7858,-3.7865,-3.789,-3.7899,-3.7791,-3.7791,-3.7791,0,-3.742,-3.7473,-3.7477,-3.7516,-3.7535,-3.7526,-3.7568,-3.7585,-3.7621,-3.7634,-3.762,-3.7687,-3.7703,-3.776,-3.7777,-3.779,-3.7801,-3.7783,-3.7857,-3.7864,-3.787,-3.7894,-3.7904,-3.7793,-3.7793,-3.7792,-3.7792,0,-3.7503,-3.754,-3.757,-3.7607,-3.7629,-3.7669,-3.7678,-3.7701,-3.77,-3.7709,-3.7756,-3.7775,-3.7809,-3.7822,-3.782,-3.7879,-3.787,-3.7856,-3.783,-3.7882,-3.7904,-3.7913,-3.7796,-3.7795,-3.7794,-3.7794,0,0,-3.7579,-3.7618,-3.7629,-3.7646,-3.7676,-3.7704,-3.7743,-3.7777,-3.7797,-3.7821,-3.7854,-3.79,-3.7887,-3.7906,-3.7906,-3.7933,-3.7986,-3.7915,-3.7916,-3.7929,-3.8053,-3.8064,-3.8075,-3.798,-3.7982,-3.7983,-3.8051,0,-3.7643,-3.7715,-3.7719,-3.7783,-3.7817,-3.7809,-3.7843,-3.7865,-3.7874,-3.7903,-3.7913,-3.7946,-3.7926,-3.7937,-3.7963,-3.7974,-3.8011,-3.7969,-3.8011,-3.8012,-3.8006,-3.8086,-3.8098,-3.8161,-3.806,-3.8061,-3.8062,0,-3.7728,-3.7757,-3.7825,-3.7851,-3.7866,-3.7897,-3.7929,-3.7957,-3.7981,-3.7986,-3.8007,-3.8003,-3.8043,-3.8015,-3.8069,-3.804,-3.8057,-3.8065,-3.8068,-3.8073,-3.8041,-3.8094,-3.8181,-3.8191,-3.8076,-3.8075,-3.8074,0,-3.7778,-3.7834,-3.7882,-3.7896,-3.7928,-3.795,-3.7964,-3.7986,-3.8007,-3.8034,-3.8047,-3.8078,-3.8095,-3.8119,-3.8123,-3.8102,-3.8178,-3.815,-3.8183,-3.8183,-3.8201,-3.82,-3.8293,-3.821,-3.8209,-3.8209,-3.8209,0,-3.785,-3.7892,-3.7905,-3.7935,-3.7982,-3.7986,-3.8032,-3.8044,-3.8064,-3.8095,-3.8089,-3.8118,-3.8122,-3.8152,-3.8155,-3.82,-3.8208,-3.8212,-3.8213,-3.8214,-3.8213,-3.8226,-3.8222,-3.8212,-3.8211,-3.8211,-3.821,0,-3.7915,-3.7925,-3.7977,-3.8003,-3.801,-3.8044,-3.8065,-3.8093,-3.8102,-3.8141,-3.8151,-3.8164,-3.8199,-3.8206,-3.8246,-3.8249,-3.8303,-3.8298,-3.8295,-3.8295,-3.8329,-3.8326,-3.8434,-3.8448,-3.8355,-3.8356,-3.8356,0,-3.7961,-3.7993,-3.8023,-3.8044,-3.806,-3.8093,-3.8115,-3.8119,-3.8142,-3.8172,-3.8196,-3.8231,-3.8259,-3.8315,-3.8327,-3.8358,-3.8355,-3.8391,-3.836,-3.836,-3.8357,-3.8356,-3.8359,-3.8397,-3.8398,-3.8399,-3.84,0,-3.8041,-3.8045,-3.8077,-3.8111,-3.8136,-3.8163,-3.8188,-3.8205,-3.8213,-3.8238,-3.8274,-3.8296,-3.8339,-3.8373,-3.8404,-3.8417,-3.841,-3.8409,-3.8419,-3.842,-3.8418,-3.8421,-3.8313,-3.8407,-3.8406,-3.8406,-3.8405,-3.8405,-3.8099,-3.8128,-3.8154,-3.8189,-3.8209,-3.8232,-3.826,-3.8273,-3.8304,-3.834,-3.834,-3.838,-3.8403,-3.8444,-3.8459,-3.849,-3.8479,-3.8492,-3.8496,-3.8499,-3.8503,-3.8412,-3.8495,-3.8495,-3.8495,-3.8495,-3.8495,0,-3.818,-3.8197,-3.8229,-3.8265,-3.8293,-3.8285,-3.8312,-3.8336,-3.8371,-3.8394,-3.8422,-3.8464,-3.8497,-3.8513,-3.8545,-3.8567,-3.8564,-3.8575,-3.8574,-3.8577,-3.8511,-3.85,-3.8577,-3.8577,-3.8577,-3.8577,-3.8577,-3.8577,-3.8226,-3.8275,-3.8282,-3.834,-3.8355,-3.8396,-3.8412,-3.8434,-3.8452,-3.85,-3.8528,-3.8538,-3.8558,-3.8592,-3.8622,-3.8625,-3.8638,-3.8651,-3.8653,-3.859,-3.8582,-3.8574,-3.8564,-3.8653,-3.8653,-3.8717,-3.8717,-3.8718]}]]